Location: Cedarbrook
(36.3103°N, 86.6422°W)
Time: 09:23:29
(UTC+00:00)

Feng Yun 1-1 Rocket - Pass Details

Date: 29 October 2020
Orbit: 829 x 934 km, 99.2° (Epoch: 05 December)

Event Time Altitude Azimuth Distance (km) Brightness Sun altitude
Rises 23:26:44 0° 152° (SSE) 3,550 7.3 -7.5°
Reaches altitude 10° 23:29:10 10° 148° (SSE) 2,620 6.6 -7.9°
Maximum altitude 23:34:53 55° 71° (ENE) 1,109 4.5 -9.1°
Drops below altitude 10° 23:40:39 10° 356° (N) 2,648 6.7 -10.2°
Sets 23:43:08 0° 352° (N) 3,591 7.5 -10.7°
